This is the latest recevied weather packets stored in our database for station/object K7OWW-2. If no packets are shown the sender has not sent any weather packets the latest 10 day(s).
| Time | Temp. | Humidity | Pressure | Rain* | Wind** | Luminosity | Snow |
|---|---|---|---|---|---|---|---|
| 1788519524 | 0° C | 96% | 1013.7 hPa | 0 mm | - | - | - |
| 1788518924 | 0° C | 96% | 1013.5 hPa | 0 mm | - | - | - |
| 1788518324 | 0° C | 96% | 1013.5 hPa | 0 mm | - | - | - |
| 1788517724 | 0° C | 96% | 1013.5 hPa | 0 mm | - | - | - |
| 1788517124 | 0° C | 96% | 1013.2 hPa | 0 mm | - | - | - |
| 1788516524 | 0.56° C | 96% | 1013.1 hPa | 0 mm | - | - | - |
| 1788515924 | 0.56° C | 96% | 1013.2 hPa | 0 mm | - | - | - |
| 1788515324 | 0.56° C | 96% | 1013.3 hPa | 0 mm | - | - | - |
| 1788514724 | 1.11° C | 96% | 1013.2 hPa | 0 mm | - | - | - |
| 1788514124 | 1.11° C | 96% | 1013.4 hPa | 0 mm | - | - | - |
| 1788513524 | 1.67° C | 96% | 1013.4 hPa | 0 mm | - | - | - |
| 1788512924 | 1.67° C | 96% | 1013.4 hPa | 0 mm | - | - | - |
| 1788512324 | 2.22° C | 96% | 1013.3 hPa | 0 mm | - | - | - |
| 1788511755 | 2.78° C | 96% | 1013.3 hPa | 0 mm | - | - | - |
| 1788511124 | 2.78° C | 96% | 1013.3 hPa | 0 mm | - | - | - |
| 1788510524 | 3.33° C | 97% | 1013.2 hPa | 0 mm | - | - | - |
| 1788509924 | 3.33° C | 97% | 1013.2 hPa | 0 mm | - | - | - |
| 1788509324 | 3.33° C | 97% | 1013.3 hPa | 0 mm | - | - | - |
| 1788508724 | 3.33° C | 97% | 1013.2 hPa | 0 mm | - | - | - |
| 1788507524 | 3.33° C | 97% | 1013 hPa | 0 mm | - | - | - |
| 1788506924 | 3.33° C | 97% | 1012.9 hPa | 0 mm | - | - | - |
| 1788506324 | 3.33° C | 96% | 1012.7 hPa | 0 mm | - | - | - |
| 1788505724 | 3.33° C | 96% | 1012.7 hPa | 0 mm | - | - | - |
| 1788505138 | 3.33° C | 96% | 1012.7 hPa | 0 mm | - | - | - |
| 1788504524 | 3.33° C | 96% | 1012.4 hPa | 0 mm | - | - | - |
* Rain latest hour (hover to see other rain measurements)
** Current wind speed in m/s (hover to see current wind gust speed)